Regional Weather Roundup
Issued by NWS

Home | Current Version | Previous Version | Text Only | Print | Product List | Glossary On
Versions: 1 2 3 4 5 6 7 8 9 10 11 12 13 14 15 16 17 18 19 20 21 22 23 24 25 26 27 28 29 30 31 32 33 34 35 36 37 38 39 40 41 42 43 44 45 46 47 48 49 50
000
ASUS45 KREV 251410
RWRNV
NEVADA REGIONAL WEATHER ROUNDUP
NATIONAL WEATHER SERVICE RENO NV
700 AM PDT SAT APR 25 2015

NOTE: "FAIR" INDICATES FEW OR NO CLOUDS BELOW 12,000 FEET WITH NO
SIGNIFICANT WEATHER AND/OR OBSTRUCTIONS TO VISIBILITY.

NVZ001-003-004-251500-
WESTERN NEVADA

CITY           SKY/WX    TMP DP  RH WIND       PRES   REMARKS
RENO           CLOUDY    42  37  82 N7        29.80R
CARSON CITY    CLOUDY    37  36  93 SW6       29.80S
MINDEN         LGT RAIN  37  37 100 S3        29.81
PYRAMID LAKE     N/A     37 N/A N/A W2          N/A
FALLON         RAIN      43  41  93 CALM      29.78S FOG
LOVELOCK       LGT RAIN  39  32  76 CALM      29.79R
HAWTHORNE      CLOUDY    52  32  46 S12       29.75R
$$

NVZ002-CAZ072-073-251500-
NORTHERN AND CENTRAL SIERRA

CITY           SKY/WX    TMP DP  RH WIND       PRES   REMARKS
S. LAKE TAHOE  LGT SNOW  35  31  85 SE5       29.79R VSB 3/4
TRUCKEE        LGT SNOW  30  30 100 CALM      29.90R VSB 1
SQUAW VLY 8000   N/A     28  30 100 SW14        N/A
SUSANVILLE     CLOUDY   N/A N/A N/A SW5         N/A
BLUE CANYON    MIX PCPN  36  34  92 W6        29.84S VSB 1/4
MAMMOTH LAKES  LGT SNOW  32  32 100 N9        29.85F
BRIDGEPORT     SNOW      32  29  88 VRB7      29.78R VSB 1/2
$$

NVZ030-031-036-251500-
NORTHERN NEVADA

CITY           SKY/WX    TMP DP  RH WIND       PRES   REMARKS
ELKO           LGT RAIN  38  34  85 E6        29.76S
WINNEMUCCA     LGT SNOW  34  33  96 CALM      29.78S FOG
WENDOVER       PTSUNNY   45  34  65 CALM      29.80F
$$

NVZ035-037-251500-
CENTRAL NEVADA

CITY           SKY/WX    TMP DP  RH WIND       PRES   REMARKS
ELY            PTSUNNY   33  32  96 S10       29.80F
EUREKA           N/A     39  28  64 S9        29.74F
$$

NVZ013-014-251500-
SOUTH CENTRAL NEVADA

CITY           SKY/WX    TMP DP  RH WIND       PRES   REMARKS
TONOPAH        PTSUNNY   38  22  52 N6        29.78F
$$

NVZ017-020-022-251500-
SOUTHERN NEVADA

CITY           SKY/WX    TMP DP  RH WIND       PRES   REMARKS
LAS VEGAS      CLOUDY    59  36  42 S13G22    29.74S
N. LAS VEGAS   CLOUDY    58  35  42 S8        29.76S
NELLIS AFB     CLOUDY    61  38  42 S10       29.77S
HENDERSON      CLOUDY    57  36  45 S14G21    29.79F
MERCURY        NOT AVBL
$$


USA.gov is the U.S. government's official web portal to all federal, state and local government web resources and services.